Regional Weather Roundup
Issued by NWS San Diego, CA

Home | Current Version | Previous Version | Text Only | Print | Product List | Glossary On
Versions: 1 2 3 4 5 6 7 8 9 10 11 12 13 14 15 16 17 18 19 20 21 22 23 24 25 26 27 28 29 30 31 32 33 34 35 36 37 38 39 40 41 42 43 44 45 46 47
000
ASUS46 KSGX 130011
RWRSGX

SAN DIEGO HOURLY WEATHER ROUNDUP
NATIONAL WEATHER SERVICE SAN DIEGO CA
400 PM PST FRI FEB 12 2016

NOTE: "FAIR" INDICATES FEW OR NO CLOUDS BELOW 12,000 FEET WITH NO
SIGNIFICANT WEATHER AND/OR OBSTRUCTIONS TO VISIBILITY.

CAZ042-043-060-061-PZZ750-775-130100-

GREATER SAN DIEGO AREA

CITY           SKY/WX    TMP DP  RH WIND       PRES   REMARKS
LINDBERGH FLD  SUNNY     73  52  47 NW6       30.04S
POINT LOMA       N/A     67  52  59 NW15        N/A
NATIONAL CITY    N/A     72  51  47 SW2       30.03F
CHULA VISTA      N/A     72  54  52 W2        29.96S
IMPERIAL BEACH MOSUNNY   68  55  63 W7        30.04F
BROWN FIELD    SUNNY     73  45  36 W6        30.04S
MIRAMAR MCAS   SUNNY     78  35  21 NW5       30.04S
MONTGOMERY FLD SUNNY     78  35  21 N7        30.04S

$$

NORTH SAN DIEGO COUNTY

CITY           SKY/WX    TMP DP  RH WIND       PRES   REMARKS
CAMP PENDLETON MOSUNNY   74  42  31 SW8       30.02S
OCEANSIDE AP   SUNNY     70  50  49 SW7       30.02S
OCEANSIDE HBR    N/A     65  60  83 W3        30.06R
VISTA            N/A     76  42  28 W2        30.02S
CARLSBAD       SUNNY     70  43  37 W5        30.03S
DEL MAR          N/A     67  49  51 CALM      30.06S
FALLBROOK        N/A     80  43  27 CALM      30.02S
ESCONDIDO        N/A     78  34  20 W3        30.04R
SAN MARCOS       N/A     77  42  27 W7        30.02R
POWAY            N/A     81  40  23 CALM      30.05R

$$

EAST SAN DIEGO COUNTY

CITY           SKY/WX    TMP DP  RH WIND       PRES   REMARKS
RAMONA         SUNNY     77  41  27 W9        30.06S
SANTEE LAKES     N/A     82  39  21 SW5       30.01F
LA MESA          N/A     81  35  19 CALM      29.96S
JAMUL            N/A     81  40  23 CALM      30.04S
DESCANSO N       N/A     76  31  19 CALM      29.97S
MT. LAGUNA OBS   N/A     65   3   8 SE2       29.79S
CAMPO            N/A     77  34  21 SW13      30.07R

$$

ORANGE COUNTY AND THE LOS ANGELES BASIN

CITY           SKY/WX    TMP DP  RH WIND       PRES   REMARKS
JOHN WAYNE AP  MOSUNNY   72  43  35 SW7       30.03S
LAGUNA BEACH     N/A     68  57  66 CALM      29.99S
LAKE FOREST FR   N/A     81  35  19 W5        29.91S
HUNTINGTON BCH   N/A     68  60  75 SW2       30.05S
LOS ALAMITOS   SUNNY     69  55  60 S7        30.03R
FULLERTON      SUNNY     76  40  27 S6        30.02R
LONG BEACH     SUNNY     79  50  36 MISG      30.02S
L.A. AP        MOSUNNY   67  54  63 W12       30.04R
L.A. DOWNTOWN  SUNNY     78  37  22 VRB3      30.02R

$$

THE INLAND EMPIRE

CITY           SKY/WX    TMP DP  RH WIND       PRES   REMARKS
CORONA         SUNNY     84  36  18 W10       30.02S
CHINO          MOSUNNY   84  35  17 SW10      30.03S
ONTARIO        MOSUNNY   85  20   9 SW8       30.03S
SAN BERNARDINO SUNNY    N/A N/A N/A CALM      30.03F
RIVERSIDE AP   SUNNY     85  28  12 W8        30.02S
MORENO VALLEY    N/A     87  22   9 SW3       28.15S
MARCH ARB      SUNNY     84  18   8 NW5       30.05S
HORSETHIEF CYN   N/A     83  27  13 NE3       30.06S
PERRIS           N/A     86  20   8 S1        30.05F
HEMET EAST       N/A     83  10   6 SW5       29.94S
FRENCH VALLEY  FAIR      81  23  12 SW6       30.06R
TEMECULA         N/A     83  32  16 SW7       29.97S

$$

SAN BERNARDINO AND RIVERSIDE COUNTY MOUNTAINS

CITY           SKY/WX    TMP DP  RH WIND       PRES   REMARKS
BIG BEAR AP    SUNNY     59  14  17 W6        30.31S
PINE COVE        N/A     63  24  22 CALM      30.05F

$$

SOUTHERN DESERT INCLUDING THE COACHELLA VALLEY

CITY           SKY/WX    TMP DP  RH WIND       PRES   REMARKS
PALM SPRINGS   SUNNY     86  17   8 E6        30.04F
THOUSAND PALMS   N/A     89  25  10 E6        30.01S
PALM DESERT      N/A     87  32  14 SE1       31.92S
THERMAL        SUNNY     84  25  11 SE6       30.00S
BLYTHE         SUNNY     82  31  15 E7        30.03F
IMPERIAL AP    SUNNY     87  20   8 VRB3      30.01S
EL CENTRO NAS  MOSUNNY   85  24  11 NE6       30.03F
YUMA AZ        MOSUNNY   87  22   9 N5        30.01
MEXICALI       SUNNY     84  19   9 W6        30.02F

$$

UPPER DESERT

CITY           SKY/WX    TMP DP  RH WIND       PRES   REMARKS
VICTORVILLE AP SUNNY     73  18  12 CALM      30.16S
HESPERIA         N/A     73  26  17 CALM      30.25S
APPLE VALLEY     N/A     74  19  12 W1        30.12S
PALMDALE       SUNNY     73  24  16 CALM      30.16S
LANCASTER      SUNNY     73  25  16 CALM      30.14F
EDWARDS AFB    PTSUNNY   73  15  11 CALM      30.12F
DAGGETT        SUNNY     75  19  12 E6        30.12F
29 PALMS N     SUNNY     77  15   9 CALM      30.17S
NEEDLES        SUNNY     82  23  11 N8        30.07F

$$

REGIONAL REPORTS

CITY           SKY/WX    TMP DP  RH WIND       PRES   REMARKS
SANTA BARBARA  SUNNY     72  44  36 W8        30.04S
SANDBERG       SUNNY     69  26  20 NE9       30.23S
LAS VEGAS NV   MOSUNNY   73  23  15 CALM      30.11S
PHOENIX AZ     MOSUNNY   86  20   9 W6        30.02F
TIJUANA        SUNNY     75  36  23 W9        30.06S
ENSENADA NW      N/A     72  32  22 CALM      30.01S

$$

OFFSHORE ISLANDS

CITY           SKY/WX    TMP DP  RH WIND       PRES   REMARKS
CATALINA ARPT  SUNNY     71  28  20 W9        30.10S
SAN CLEMENTE I MOSUNNY   55  54  94 S10       30.06F FOG
SAN NICOLAS IS FAIR     N/A N/A N/A CALM      30.06S

$$

MARINE AND OFFSHORE BUOY REPORTS

STATION/POSITION SKY/WX   TEMP    WIND        PRES    SWELL
                          AIR SEA DIR/SP/G            HT/PER/DIR
                          (F)     (DEG/KT/KT) (MB)    (FT/S/D)
TANNER BANKS               56 60  300/ 10/ 14 1018.0S  11/320/17
S CLEMENTE BASIN           58 62  290/ 12/ 14 1017.3R   7/280/17
SAN NICOLAS IS.               58                N/A    10/290/20
SO. S. ROSA ISLA           59 60              1017.0F
W. S. BARBARA CH           59 59  310/ 16/ 17 1017.1F  11/300/19
M. S. BARBARA CH           60 61  260/  6/  8 1017.9F
S. MONICA BASIN            62 62  260/  6/  6 1017.7R   5/230/19
DANA POINT                    62                N/A     3/270/20
OCEANSIDE OFFSHR              63                N/A     3/230/13
TORREY PINES OTR              63                N/A     3/270/20
LA JOLLA 1                 66 61              1017.3R
SAN DIEGO BAY                 61              1017.6R
POINT LOMA SOUTH              62                N/A     5/270/20

$$




USA.gov is the U.S. government's official web portal to all federal, state and local government web resources and services.